Starlink 5310

operational
NORAD ID: 55272 Int'l Des: 2023-010 Owner: SPXS Country: US Constellation: starlink
LEOCIRCULAR

Starlink 5310について

説明を読み込み中...

リアルタイム位置

3D地球を読み込み中...

次回通過

高度履歴

Altitude vs Time

uPlot chart will show altitude changes over time

軌道要素

1 55272U 23010D 25304.29477325 .00000108 00000-0 16813-4 0 9992
2 55272 70.0012 10.7187 0003156 272.5027 87.5771 14.98330686153403
Epoch: Oct 31, 2025 • Age: 7 hours

現在のステータス

高度 576.2 km
速度 7.57 km/s
衛星直下点 28.53°N, 73.74°W
打ち上げ日 Jan 19, 2023
運用期間 2.7 years
タイプ internet

技術仕様

分類 Payload
質量 305.00 kg
乾燥質量 290.00 kg
総質量 305.00 kg
長さ 0.20 m
直径 2.80 m
スパン 9.00 m
形状 Box + pan
製造者 SPXS
バスタイプ Starlink
フェーズステータス In Orbit
所有者/国 SPXS/US

大規模コンステレーション

Loading constellations...